Regional Weather Roundup
Issued by NWS Tiyan, Guam

Home | Current Version | Previous Version | Text Only | Print | Product List | Glossary On
Versions: 1 2 3 4 5 6 7 8 9 10 11 12 13 14 15 16 17 18 19 20 21 22 23 24 25 26 27 28 29 30 31 32 33 34 35 36 37 38 39 40 41 42 43 44 45 46 47 48 49 50
000
ASGM40 PGUM 262212
RWRGUM
WEATHER ROUNDUP FOR THE MARIANAS
NATIONAL WEATHER SERVICE TIYAN GU
800 AM CHST THU NOV 27 2014

GUZ001>004-262300-
MARIANA ISLANDS-

CITY           SKY/WX    TMP DP  RH WIND       PRES   REMARKS
GUAM AIRPORT   LGT RAIN  81  75  83 NE14      29.89R
ANDERSEN AFB   PTSUNNY   81  75  83 NE23      29.89S
ROTA AIRPORT   MOSUNNY   81  73  78 NE16      29.91R
TINIAN AP      MOSUNNY   82  73  74 E17       29.88R
SAIPAN AP      MOSUNNY   82  73  74 E16       29.91R

$$



USA.gov is the U.S. government's official web portal to all federal, state and local government web resources and services.